This demonstration page uses our WeatherBlox Daily Observations layout. Learn more.

Left ArrowRight Arrow

44.89941, -97.11507

Hourly Observations for October 12, 2021

Temp ( °F °C ) Dew Point ( °F °C ) Humidity (%) Winds ( mph kmh ) Pressure ( in mb ) Visibility ( mi km ) Precip ( " mm )
12:53 am 00:53 Clear 41 5 39 3.9 93 93 N 9 15 29.93 1014 10 16 N/A
1:53 am 01:53 Clear 41 5 39 3.9 93 93 N 7 11 29.94 1014 10 16 N/A
2:53 am 02:53 Clear 42 5.6 39 3.9 89 89 NNW 10 17 29.95 1014 10 16 N/A
3:53 am 03:53 Clear 41 5 38 3.3 89 89 N 7 11 29.96 1015 10 16 N/A
4:53 am 04:53 Clear 42 5.6 39 3.9 89 89 N 7 11 29.99 1016 10 16 N/A
5:53 am 05:53 Clear 40 4.4 37 2.8 89 89 N 7 11 30.01 1016 10 16 N/A
6:53 am 06:53 Clear 40 4.4 38 3.3 93 93 NNE 8 13 30.02 1017 10 16 N/A
7:53 am 07:53 Sunny 39 3.9 37 2.8 93 93 N 7 11 30.04 1017 10 16 N/A
8:53 am 08:53 Sunny 45 7.2 39 3.9 80 80 NNE 9 15 30.04 1017 10 16 N/A
9:53 am 09:53 Sunny 49 9.4 42 5.6 77 77 NNE 9 15 30.05 1018 10 16 N/A
10:53 am 10:53 Sunny 56 13.3 45 7.2 67 67 NNE 9 15 30.04 1017 10 16 N/A
11:53 am 11:53 Sunny 59 15 48 8.9 67 67 NE 10 17 30.01 1016 10 16 N/A
12:53 pm 12:53 Sunny 60 15.6 48 8.9 65 65 ENE 13 20 29.98 1015 10 16 N/A
1:53 pm 13:53 Sunny 60 15.6 48 8.9 65 65 E 9 15 29.99 1016 10 16 N/A
2:53 pm 14:53 Sunny 61 16.1 47 8.3 60 60 E 10 17 29.95 1014 10 16 N/A
3:53 pm 15:53 Sunny 61 16.1 46 7.8 58 58 E 12 19 29.93 1014 10 16 N/A
4:53 pm 16:53 Sunny 60 15.6 44 6.7 56 56 ENE 12 19 29.92 1013 10 16 N/A
5:53 pm 17:53 Sunny 58 14.4 44 6.7 60 60 ENE 12 19 29.92 1013 10 16 N/A
6:53 pm 18:53 Clear 54 12.2 45 7.2 72 72 ENE 8 13 29.92 1013 10 16 N/A
7:53 pm 19:53 Clear 53 11.7 46 7.8 77 77 ENE 6 9 29.92 1013 10 16 N/A
8:53 pm 20:53 Mostly Cloudy 53 11.7 48 8.9 83 83 NE 7 11 29.91 1013 10 16 N/A
9:53 pm 21:53 Mostly Cloudy 54 12.2 49 9.4 83 83 E 6 9 29.92 1013 10 16 N/A
10:53 pm 22:53 Partly Cloudy 54 12.2 49 9.4 83 83 ENE 6 9 29.91 1013 10 16 N/A
11:53 pm 23:53 Cloudy 54 12.2 50 10 87 87 ENE 8 13 29.89 1012 10 16 N/A

Powered by AerisWeather